Location: Rounton
(54.4000°N, 1.3500°W)
Time: 08:31:02
(UTC+00:00)

Tiros 1 despin weight - Pass Details

Date: 05 December 2021
Orbit: 592 x 641 km, 48.2° (Epoch: 19 January)

Event Time Altitude Azimuth Distance (km) Brightness Sun altitude
Rises 17:17:52 0° 270° (W) 2,827 ? -12.8°
Reaches altitude 10° 17:20:28 10° 256° (WSW) 1,923 ? -13.1°
Maximum altitude 17:24:01 24° 203° (SSW) 1,236 ? -13.6°
Drops below altitude 10° 17:27:34 10° 149° (SSE) 1,924 ? -14.1°
Sets 17:30:10 0° 135° (SE) 2,829 ? -14.5°
Enters shadow 17:30:15 - 135° (SE) 2,859 ? -14.5°
